Aérodrome :
LOGIN :

S'inscrire | Disclaimer

   EN    FR    IT 

 










Légende :    VFR   VFR Marginal   IFR   IFR Intensif   IFR Très Intensif
Visi : 
Plafond : 
>= 8 km
>= 3000ft
5 à 8 km
1000 à 3000 ft
1500m à 5 km
500 à 1000 ft
800 à 1500m
200 à 500 ft
< 800m
< 200 ft
Symboles :   Orages  Brouillard  Fortes neiges  Fortes précipitations  Vent > 20 kt
SIGMETs :   Divers  Orages  Givrage  Turbulence  Onde Orograph.  Cendres Volcan.






- Altitude de l'aérodrome : 915 ft
- Code IATA : LUG


LSZA - Lugano

DERNIER METAR :
  • 160620Z VRB02KT CAVOK 12/08 Q1008 NOSIG

METARs EXPIRÉS :
  • 160550Z AUTO VRB01KT CAVOK 11/08 Q1008
  • 160520Z AUTO VRB02KT CAVOK 10/08 Q1008
  • 160450Z AUTO VRB02KT CAVOK 09/08 Q1008
  • 160420Z AUTO VRB01KT CAVOK 09/08 Q1008
  • 160350Z AUTO VRB01KT CAVOK 09/07 Q1008

TAF TAF LSZA
Valide du 16 à 06h jusqu'au 16 à 15h UTC


160525Z 1606/1615 19005KT CAVOK
BECMG 1607/1610 9999 SCT060
PROB40
TEMPO 1611/1615 SHRA SCT030TCU
ATIS : +41 22 417 40 88



MET'MAP, la Météo Aéronautique d'un coup d'oeil ! - Copyright ORBIFLY Décembre 2007 - Disclaimer

ORBIFLY MET'MAP TEAM :

Programmation & Développement : Alexandra Zaïnal
Sur une idée originale de : Baudouin d'Aumeries
Assistance à la programmation : Marc-Olivier Méhu
Soutien technique & logistique : Manuel Goepfert

Contact : metmap@orbifly.com




SOURCES & CREDITS :

   NOAA